KGUPKSMO

Guest
Details From KGUP - Gallup Muni
To KSMO - SANTA MONICA MUNI
Flight Number -
Tags decoded
Created
Modified
Stats Distance 498 nm / 923 km
Max Altitude 0 ft / 0 m
Waypoints 9
Social Downloads 0
Likes 0
Share VATSIM

Download

Looking for another format? Having issues loading an existing format? Contact us
Advertisement - Login to hide

Notes

Requested: KGUP INW DRK PKE TNP PSP HDF SLI KSMO

Route

KGUP INW DRK PKE TNP PSP HDF SLI KSMO

ID Type Via Altitude Latitude Longitude Leg Dist Tot Dist Heading (true) Name
O KGUP APT - 0 ft / 0 m 35.51106˚ -108.78930˚ - 0 nm - Gallup Muni
INW VOR - 0 ft / 0 m 35.06161˚ -110.79503˚ 101 nm 101 nm 255° / 254° WINSLOW VORTAC
DRK VOR - 0 ft / 0 m 34.70256˚ -112.48036˚ 85 nm 187 nm 256° / 255° DRAKE VORTAC
PKE VOR - 0 ft / 0 m 34.10200˚ -114.68208˚ 114 nm 302 nm 252° / 251° PARKER VORTAC
TNP VOR - 0 ft / 0 m 34.11222˚ -115.76992˚ 54 nm 356 nm 271° / 270° TWENTYNINE PALMS VORTAC
PSP VOR - 0 ft / 0 m 33.87003˚ -116.42978˚ 35 nm 392 nm 246° / 246° PALM SPRINGS VORTAC
HDF VOR - 0 ft / 0 m 33.77633˚ -117.18533˚ 38 nm 430 nm 262° / 261° HOMELAND VOR
SLI VOR - 0 ft / 0 m 33.78331˚ -118.05475˚ 43 nm 474 nm 271° / 270° SEAL BEACH VORTAC
O KSMO APT - 0 ft / 0 m 34.01585˚ -118.45133˚ 24 nm 498 nm 305° / 305° SANTA MONICA MUNI

Altitude Profile

Advertisement - Login to hide

Weather


0- 5 10 15 20 25 30 35+ Temperature / ° C

Clouds and Precipitation
Forecast for 2018-05-25 00:00 UTC. Updated 43 minutes ago

Ground ~20,000 ft ~40,000 ft Winds

KGUP

Details ICAO KGUP (GUP)
Name Gallup Muni
Region United States
Timezone America/Denver (UTC-6.0)
Stats Elevation 6,472 ft / 1,973 m (AMSL)
Location 35.511058° -108.789303°
Runways 1
Magnetic Variation 9.441° E

METAR

KGUP 242353Z AUTO 23008KT 10SM CLR 28/M10 A3017 RMK AO2 SLP093 T02781100 10283 20233 56016

Decode

TAF

KGUP 242321Z 2500/2524 27010G17KT P6SM SKC FM250200 VRB04KT P6SM SKC FM251800 22010KT P6SM SKC FM252100 23015G23KT P6SM SKC

Decode

Departure Runways

ID Width Length Bearing (true) Bearing (mag) Surface Threshold Offset Overrun Length
06 100 ft / 30 m 7,301 ft / 2,225 m 73.81° 64.37° Asphalt 0 ft / 0 m 0 ft / 0 m
24 100 ft / 30 m 7,301 ft / 2,225 m 253.82° 244.38° Asphalt 0 ft / 0 m 0 ft / 0 m

KSMO

Details ICAO KSMO (SMO)
Name SANTA MONICA MUNI
Region United States
Timezone America/Los_Angeles (UTC-7.0)
Stats Elevation 177 ft / 54 m (AMSL)
Location 34.015847° -118.451329°
Runways 1
Magnetic Variation 11.990° E

METAR

KSMO 242351Z 23007KT 10SM OVC037 17/12 A3006 RMK AO2 SLP178 T01670122 10183 20150 58007

Decode

TAF

TAF KSMO 241740Z 2418/2518 VRB03KT P6SM SCT014 BKN020 OVC035 FM242100 23009KT P6SM SCT025 OVC035 FM250300 24008KT P6SM OVC025 FM250800 VRB03KT P6SM OVC025

Decode

Destination Runways

ID Width Length Bearing (true) Bearing (mag) Surface Threshold Offset Overrun Length
03 151 ft / 46 m 4,978 ft / 1,517 m 44.45° 32.46° Asphalt 0 ft / 0 m 0 ft / 0 m
21 151 ft / 46 m 4,978 ft / 1,517 m 224.46° 212.47° Asphalt 0 ft / 0 m 0 ft / 0 m